Weather History for KBUF - October, 2014

Change the Weather History Date:

Tuesday, October 7, 2014

  Actual Average Record
Temperature  
Mean Temperature 60 °F 54 °F  
Max Temperature 65 °F 62 °F 82 °F (1955)
Min Temperature 54 °F 46 °F 28 °F (1964)
Degree Days  
Heating Degree Days 5 11  
Month to date heating degree days 51 72  
Since 1 July heating degree days 181 234  
Cooling Degree Days 0 0  
Month to date cooling degree days 3 0  
Year to date cooling degree days 510 540  
Growing Degree Days 9 (Base 50)    
Moisture  
Dew Point 49 °F    
Average Humidity 73    
Maximum Humidity 93    
Minimum Humidity 52    
Precipitation  
Precipitation 0.12 in 0.12 in 1.45 in (1907)
Month to date precipitation 2.81 0.86  
Year to date precipitation 35.88 29.92  
Snow  
Snow 0.00 in 0.00 in T in (2001)
Month to date snowfall T 0.1  
Since 1 July snowfall T 0.1  
Since 1 September snowfall T 0.1  
Snow Depth 0.00 in    
Sea Level Pressure  
Sea Level Pressure 29.76 in    
Wind  
Wind Speed 13 mph (SSW)    
Max Wind Speed 26 mph    
Max Gust Speed 34 mph    
Visibility 10 miles    
Events Rain    
T = Trace of Precipitation, MM = Missing Value Source: NWS Daily Summary

Daily Weather History Graph

Daily Weather History Graph

Search for Another Location

Airport or City:

Trip Planner

Search our weather history database for the weather conditions in past years. The results will help you decide how hot, cold, wet, or windy it might be!

Date:

Astronomy

Oct. 07, 2014 Rise Set
Actual Time 7:19 AM EDT 6:45 PM EDT
Civil Twilight 6:50 AM EDT 7:14 PM EDT
Nautical Twilight 6:17 AM EDT 7:46 PM EDT
Astronomical Twilight 5:44 AM EDT 8:19 PM EDT
Moon 6:20 PM EDT (10/7) 6:12 AM EDT (10/7)
Length of Visible Light 12h 23m
Length of Day
11h 26m
Waxing Gibbous, 99% of the Moon is Illuminated
Oct 7
Waxing Gibbous
Oct 8
Full
Oct 15
Last Quarter
Oct 23
New
Oct 30
First Quarter

Hourly Weather History & Observations

Time (EDT) Temp. Dew Point Humidity Pressure Visibility Wind Dir Wind Speed Gust Speed Precip Events Conditions
12:54 AM 57.0 °F 51.1 °F 81% 29.75 in 10.0 mi SSW 13.8 mph - N/A   Mostly Cloudy
1:54 AM 55.9 °F 50.0 °F 80% 29.74 in 10.0 mi SSW 9.2 mph - N/A   Mostly Cloudy
2:54 AM 57.0 °F 50.0 °F 77% 29.74 in 10.0 mi SSW 12.7 mph 20.7 mph N/A   Mostly Cloudy
3:54 AM 55.9 °F 50.0 °F 80% 29.75 in 10.0 mi SSW 13.8 mph - N/A   Mostly Cloudy
4:52 AM 55.4 °F 48.2 °F 77% 29.77 in 10.0 mi SW 12.7 mph - N/A   Overcast
4:54 AM 55.9 °F 48.9 °F 77% 29.77 in 10.0 mi SW 12.7 mph - N/A   Overcast
5:01 AM 57.0 °F 50.0 °F 77% 29.77 in 10.0 mi SSW 10.4 mph - N/A   Overcast
5:08 AM 57.0 °F 50.0 °F 77% 29.77 in 10.0 mi SSW 12.7 mph - N/A   Overcast
5:15 AM 57.0 °F 50.0 °F 77% 29.77 in 10.0 mi SSW 10.4 mph - N/A   Overcast
5:54 AM 55.9 °F 48.9 °F 77% 29.78 in 10.0 mi SW 10.4 mph - N/A   Mostly Cloudy
6:54 AM 54.0 °F 46.9 °F 77% 29.80 in 10.0 mi SSW 8.1 mph - N/A   Mostly Cloudy
7:54 AM 55.0 °F 48.0 °F 77% 29.81 in 10.0 mi SSW 11.5 mph - N/A   Mostly Cloudy
8:54 AM 55.9 °F 46.9 °F 72% 29.83 in 10.0 mi SW 18.4 mph - N/A   Partly Cloudy
9:54 AM 57.9 °F 48.0 °F 70% 29.85 in 10.0 mi SSW 16.1 mph 23.0 mph N/A   Scattered Clouds
10:54 AM 61.0 °F 46.9 °F 60% 29.86 in 10.0 mi SSW 15.0 mph - N/A   Scattered Clouds
11:54 AM 61.0 °F 46.9 °F 60% 29.85 in 10.0 mi SW 16.1 mph 24.2 mph N/A   Mostly Cloudy
12:54 PM 61.0 °F 46.0 °F 58% 29.85 in 10.0 mi SW 20.7 mph 27.6 mph N/A   Mostly Cloudy
1:54 PM 62.1 °F 45.0 °F 53% 29.83 in 10.0 mi SW 18.4 mph 24.2 mph N/A   Mostly Cloudy
2:54 PM 63.0 °F 46.9 °F 56% 29.81 in 10.0 mi South 11.5 mph - 0.00 in Rain Light Rain
3:54 PM 64.0 °F 46.0 °F 52% 29.79 in 10.0 mi South 9.2 mph - 0.00 in Rain Light Rain
4:54 PM 64.4 °F 44.6 °F 49% 29.75 in 10.0 mi SSE 9.2 mph - N/A   Mostly Cloudy
5:54 PM 62.6 °F 48.2 °F 59% 29.73 in 10.0 mi ESE 11.5 mph - N/A Rain Light Rain
6:54 PM 62.1 °F 48.0 °F 60% 29.73 in 10.0 mi SSW 17.3 mph 32.2 mph 0.00 in Rain Light Rain
7:54 PM 61.0 °F 48.9 °F 64% 29.73 in 10.0 mi South 12.7 mph - 0.00 in Rain Light Rain
8:54 PM 57.9 °F 52.0 °F 81% 29.72 in 8.0 mi South 12.7 mph - 0.02 in Rain Light Rain
9:54 PM 55.9 °F 53.1 °F 90% 29.71 in 8.0 mi South 10.4 mph - 0.03 in Rain Light Rain
10:11 PM 55.9 °F 54.0 °F 93% 29.70 in 6.0 mi SSW 11.5 mph - 0.02 in Rain Rain
10:31 PM 55.9 °F 54.0 °F 93% 29.70 in 7.0 mi SSW 9.2 mph - 0.06 in Rain Rain
10:54 PM 55.9 °F 54.0 °F 93% 29.69 in 10.0 mi SSW 8.1 mph - 0.07 in   Overcast
11:24 PM 55.9 °F 54.0 °F 93% 29.68 in 10.0 mi SSW 6.9 mph - N/A   Overcast
11:40 PM 55.9 °F 54.0 °F 93% 29.68 in 10.0 mi SSW 5.8 mph - 0.00 in Rain Light Rain
11:54 PM 55.9 °F 54.0 °F 93% 29.68 in 10.0 mi South 8.1 mph - 0.00 in   Mostly Cloudy